Theta_e
324 321 318 321 317 317 313 307 299 296 297 293 291 294 295 296 296 297 297 295 298 297 296 297 296 299 300 298 301 299 298 300 300 297 299 309 312 314 317 325 322 325 329 330 333 339 344 345 349 350 350 350 349 349 349 349 348 348 348 348 348 348 348 347 347 347 347 347 347 347 347 346 345 344 344 343 343 343 343 342 343 345 345 346 345 346 345 343 342 340 340 339 338 336 336 335 335
321 318 318 318 319 315 310 300 293 291 290 287 291 290 293 295 295 295 298 297 299 300 295 297 299 299 299 300 297 300 300 302 302 305 308 307 310 314 316 322 322 326 329 331 334 340 344 345 346 349 349 349 349 349 348 348 348 348 348 347 347 347 347 347 347 347 347 347 346 346 346 345 344 343 342 341 341 341 341 340 341 342 343 343 343 343 342 341 339 338 338 338 336 334 333 333 332
318 318 322 318 316 311 307 301 297 285 290 287 289 291 294 295 295 295 297 298 295 296 292 297 300 300 302 301 301 301 301 300 300 303 306 308 316 319 319 322 322 327 329 332 336 340 343 343 343 349 349 349 349 349 348 348 348 347 348 347 347 347 347 347 346 346 346 345 345 345 344 343 343 341 340 339 339 339 339 338 341 340 340 341 341 341 340 339 337 336 336 335 334 332 331 331 331
317 318 317 313 313 305 302 296 290 290 291 288 287 291 290 295 294 297 295 296 295 292 297 300 301 302 302 299 301 300 301 303 303 307 305 310 317 319 322 321 323 327 331 332 337 339 341 341 343 348 349 349 348 348 348 348 348 347 347 347 347 347 346 346 346 345 345 344 343 343 342 341 340 339 338 338 337 337 337 337 338 336 338 338 338 337 338 337 336 335 334 333 332 330 330 330 329
317 318 314 310 308 305 296 294 292 289 290 288 289 290 291 292 296 294 295 293 293 294 296 299 299 301 302 301 298 302 302 302 304 305 308 310 311 315 323 320 324 327 330 332 336 337 338 338 343 347 348 348 348 348 347 347 347 347 346 346 346 345 345 344 344 344 343 342 342 341 340 340 339 337 337 335 335 335 335 336 337 336 336 337 337 336 336 335 334 333 333 332 331 329 329 328 327
313 313 311 315 309 307 298 294 293 290 294 290 291 293 292 294 295 295 296 297 296 295 296 296 300 301 300 299 300 302 302 308 309 305 308 313 312 316 321 322 325 327 331 330 332 334 336 337 341 346 348 348 348 347 347 346 345 345 345 344 344 344 343 343 343 342 342 341 341 340 339 339 337 336 335 333 332 333 335 336 336 336 335 335 335 334 334 333 333 331 330 329 329 329 327 326 325
317 308 307 307 302 301 295 290 289 290 295 292 294 296 299 296 295 295 296 298 296 295 295 300 295 299 299 298 300 303 303 307 308 312 310 310 311 318 320 324 326 327 329 328 328 330 331 336 342 346 346 346 346 345 345 344 343 343 343 343 343 342 342 341 341 341 340 340 339 338 338 337 335 336 333 332 331 332 334 334 334 334 334 333 333 332 333 333 332 330 330 329 328 327 325 324 324
314 313 304 299 293 297 294 290 291 289 294 294 295 295 299 298 296 296 297 296 298 300 297 293 294 298 299 297 300 303 301 303 309 307 307 307 314 319 322 324 325 327 328 324 326 328 328 335 340 344 345 346 345 345 343 343 342 342 342 341 341 340 340 340 340 340 338 336 338 338 337 337 333 332 330 330 330 330 331 332 332 333 333 332 332 332 331 331 330 329 328 327 326 325 324 323 322
307 306 300 299 297 290 287 291 292 292 293 294 297 297 304 301 300 299 297 295 296 295 296 296 296 298 296 295 298 301 298 301 303 305 309 308 314 319 322 324 325 326 326 324 324 326 329 333 337 341 343 344 344 343 342 342 341 340 340 339 339 339 340 339 339 336 335 334 334 334 333 333 332 331 330 330 329 329 330 331 331 331 330 330 331 331 331 330 329 328 328 327 325 323 322 322 321
306 304 298 294 290 293 284 288 290 292 292 293 294 297 296 295 296 297 298 297 298 296 297 293 294 298 297 297 297 301 302 301 302 306 306 309 314 319 322 324 325 325 324 323 323 325 327 328 334 338 340 342 342 341 341 341 340 339 339 338 337 337 336 335 335 335 334 334 333 333 332 332 331 331 330 329 329 329 330 330 330 329 329 329 329 329 329 328 328 327 326 325 324 322 321 321 320
300 298 296 296 286 288 288 288 286 290 289 291 294 297 297 296 296 295 294 296 295 297 297 294 298 296 296 297 298 302 300 300 304 307 307 308 314 319 321 322 321 323 323 322 323 324 326 331 328 334 335 337 340 340 340 340 338 337 337 336 335 335 335 334 334 333 333 333 332 332 331 331 330 330 330 329 329 329 329 329 328 329 328 328 328 329 329 328 327 327 326 324 323 322 320 319 318
299 296 293 285 288 289 287 287 288 291 293 293 295 294 294 295 295 297 295 296 295 295 296 296 301 296 296 294 300 301 300 300 304 306 305 309 314 318 320 319 319 320 321 320 321 323 325 328 331 329 331 333 334 336 336 337 337 337 336 334 334 334 334 333 333 332 332 331 331 331 331 331 330 330 330 329 328 328 328 328 327 328 327 327 327 327 327 326 326 325 323 322 321 321 319 318 317
298 292 291 290 289 287 286 287 291 293 292 292 295 296 294 295 297 297 295 294 293 295 297 298 298 300 298 297 300 297 300 303 301 303 306 309 314 316 317 317 317 318 319 319 321 322 322 325 328 329 329 328 330 331 332 333 334 335 335 334 332 333 333 333 332 331 331 330 330 331 330 330 329 329 328 328 327 327 327 327 327 327 327 327 326 326 325 325 324 324 322 321 321 319 318 317 315
298 294 293 293 286 286 288 290 287 292 291 293 291 292 293 296 296 295 294 297 295 297 299 298 299 298 298 296 300 297 297 301 301 304 307 309 312 314 315 315 316 317 317 318 321 321 322 323 325 326 328 331 332 329 327 330 332 334 334 334 332 333 333 332 331 331 330 329 329 329 329 328 328 328 327 327 327 326 326 326 326 327 326 325 324 324 323 323 323 322 321 320 319 318 317 316 314
302 293 290 288 287 287 287 292 291 286 292 293 294 294 294 297 295 292 298 297 298 297 300 297 300 300 296 298 298 298 300 300 302 304 306 309 311 313 313 314 314 315 316 316 319 320 321 322 323 324 325 327 328 329 330 331 328 329 331 331 332 332 332 331 331 330 329 329 329 328 327 326 325 326 326 326 325 325 325 324 325 326 325 324 323 322 322 321 321 321 321 319 318 317 316 314 313
298 295 293 294 289 288 288 288 287 288 292 291 292 290 292 294 293 297 297 299 300 298 297 300 300 300 298 299 302 300 297 299 302 304 307 308 309 310 312 313 313 314 315 316 317 318 321 320 322 322 323 325 325 326 327 328 326 325 328 330 330 330 330 329 328 328 325 324 324 324 322 323 322 323 320 323 323 324 323 322 324 324 323 322 321 321 320 319 319 319 319 318 317 316 314 313 311
296 295 293 285 289 286 288 290 288 290 290 290 291 292 296 295 295 293 293 295 298 296 296 296 301 301 297 299 299 296 297 301 303 304 306 307 310 310 311 312 312 313 313 314 315 317 318 319 320 321 321 322 324 324 324 325 328 324 325 325 326 326 327 326 326 324 320 319 319 318 316 320 320 321 321 322 317 321 316 318 322 322 321 321 320 319 318 317 317 316 315 314 313 311 309 309 308
302 296 288 288 287 286 289 291 290 291 294 294 294 292 295 294 294 297 296 296 294 294 295 296 295 296 299 295 297 297 299 301 302 304 305 305 308 308 310 311 311 313 314 314 315 316 317 317 320 319 320 320 322 322 321 322 325 326 327 328 328 326 324 322 324 323 316 320 317 317 316 314 314 314 316 315 317 318 319 317 319 320 320 319 318 318 317 316 315 314 312 310 307 304 300 298 299
296 288 289 291 287 292 293 291 292 292 294 292 292 291 293 296 296 296 297 294 293 296 298 295 297 299 299 296 297 297 298 299 301 304 303 304 305 307 309 311 310 313 313 314 315 315 316 317 319 318 319 319 320 321 320 320 322 323 323 323 324 323 322 321 319 316 315 314 313 312 311 311 310 311 312 312 314 313 317 315 317 319 317 317 317 316 316 315 314 312 310 307 304 300 297 297 296
295 293 290 288 290 291 291 291 293 293 295 295 294 294 292 293 294 295 296 296 292 294 297 297 295 299 300 298 297 297 297 299 301 303 303 304 305 307 308 309 310 311 313 314 315 315 315 316 317 319 319 317 318 319 318 318 320 320 320 320 321 321 320 316 315 313 311 309 308 308 308 307 307 308 310 309 311 315 315 314 315 315 315 315 314 315 313 312 311 309 306 303 298 296 296 295 295
296 294 291 292 291 292 294 292 294 293 293 293 293 291 291 293 292 294 292 295 296 297 299 299 300 300 301 299 297 296 296 297 299 301 302 303 304 306 308 309 310 311 313 314 314 314 314 315 317 317 317 317 317 317 318 319 318 317 318 318 318 317 314 313 311 310 308 306 305 305 305 305 305 307 309 309 309 309 309 309 308 308 307 306 303 302 302 301 299 299 298 296 296 296 296 295 295
295 296 296 294 290 292 295 293 293 293 290 291 290 292 297 293 292 292 294 295 297 299 300 299 300 301 301 300 297 296 296 297 297 298 300 302 303 303 305 307 308 309 310 311 312 313 314 314 316 316 316 316 317 317 319 319 315 318 315 315 314 313 312 310 309 308 305 303 302 302 303 303 304 305 306 305 304 304 304 303 302 301 301 300 299 297 296 295 295 295 295 295 294 295 294 295 295
295 294 295 297 293 296 294 292 291 291 292 291 292 295 293 293 295 290 294 296 301 303 302 300 299 300 300 298 296 295 296 296 297 298 300 301 302 303 304 305 306 306 307 310 312 313 313 314 315 315 314 315 315 316 316 316 317 318 316 313 313 310 309 308 306 305 304 301 301 301 302 302 303 303 302 302 301 300 300 299 298 298 298 296 295 295 295 295 295 294 294 294 293 294 293 293 293
295 295 290 295 296 296 296 296 288 289 290 294 292 293 295 295 295 291 293 298 301 303 303 301 298 296 295 296 297 298 298 297 298 298 300 301 302 303 304 304 305 307 306 308 310 311 311 312 314 314 314 314 313 315 315 314 315 314 312 310 312 309 307 306 304 303 302 299 299 300 301 302 301 301 301 300 299 297 297 297 296 295 295 295 295 295 294 294 293 293 294 294 293 293 293 292 292
295 294 293 294 293 295 296 294 293 292 292 295 293 294 297 297 295 293 295 297 299 300 301 299 297 295 294 295 297 297 297 297 298 299 299 300 302 303 304 304 304 304 304 305 307 309 310 311 312 313 313 313 313 313 314 314 313 312 311 310 310 308 307 306 303 301 300 298 298 299 300 300 300 300 299 299 296 296 295 294 294 294 294 294 294 294 294 294 293 293 293 293 293 293 292 292 292
294 297 294 291 292 292 292 292 291 291 293 293 293 294 296 296 294 293 298 300 300 301 299 298 296 295 295 296 297 296 296 297 298 298 298 300 300 300 301 302 302 301 303 305 305 307 309 310 311 312 313 313 312 312 313 312 311 311 311 309 309 307 306 305 301 299 299 298 297 299 299 299 299 298 298 296 295 294 294 293 293 294 294 294 294 294 293 293 293 292 292 293 293 293 293 292 292
291 292 292 294 295 292 292 292 292 290 290 289 293 294 295 293 294 293 298 297 297 296 296 294 292 294 296 296 296 296 295 296 297 299 299 298 298 299 300 301 301 301 302 303 304 305 307 308 309 311 312 312 312 310 312 312 311 310 311 309 307 307 305 303 301 299 298 297 297 298 298 298 298 298 297 295 295 294 293 293 293 293 293 293 294 293 293 293 293 293 293 292 292 292 292 292 291
290 291 290 291 291 290 290 288 290 290 294 291 293 293 293 292 290 294 299 295 294 294 296 296 293 294 295 294 294 296 295 297 297 298 298 298 298 298 299 300 300 301 301 301 303 305 305 306 308 310 311 311 311 310 311 311 310 310 311 307 306 306 304 302 301 298 297 296 297 297 298 297 297 296 296 294 294 293 293 292 293 293 293 293 293 293 292 292 292 292 291 291 292 292 291 290 291
290 290 291 289 289 292 295 292 294 290 292 288 291 289 289 290 290 297 298 299 296 294 295 296 295 294 295 295 294 294 295 296 296 296 298 300 301 300 299 301 301 301 302 303 302 303 303 304 306 308 310 310 310 309 310 311 310 309 309 306 305 304 302 301 300 298 297 296 296 297 297 297 296 295 295 294 294 293 293 292 292 293 293 293 292 293 292 292 292 291 291 291 290 290 290 290 290
291 288 288 290 289 289 292 290 285 288 291 287 290 286 285 291 294 297 298 295 293 292 294 295 296 295 294 294 294 294 295 295 295 297 298 299 300 300 300 301 301 302 302 302 301 300 302 303 304 306 308 308 309 309 309 309 309 308 308 305 304 303 302 300 300 299 297 296 296 296 296 296 296 295 295 294 294 293 292 292 292 292 292 292 292 292 292 292 291 291 290 290 290 290 290 290 290
291 287 287 287 286 286 289 289 288 289 288 289 290 287 287 290 292 295 296 293 292 293 294 294 294 294 294 293 293 294 295 295 296 297 298 299 300 300 300 301 301 301 302 301 300 301 301 302 302 303 305 307 308 308 308 308 308 308 306 304 303 302 301 300 299 298 297 296 296 296 296 296 296 295 295 294 293 293 292 291 291 291 291 292 292 292 291 291 291 290 290 290 290 290 291 290 290
283 286 284 281 284 284 288 290 289 290 288 287 290 286 289 292 294 295 293 290 290 291 292 293 294 295 295 294 294 294 296 297 296 297 297 298 299 299 300 300 301 300 301 301 300 301 300 300 301 302 304 305 306 307 307 307 307 306 305 303 302 302 300 299 298 297 297 296 296 296 295 295 295 295 294 294 293 292 292 291 291 291 291 291 291 291 291 290 290 290 290 290 289 289 290 289 289
281 286 284 286 283 284 286 290 286 290 289 289 291 289 286 288 291 293 291 290 290 291 292 292 293 294 296 296 296 296 297 298 299 298 298 298 298 299 300 300 301 301 301 301 300 300 299 299 300 301 301 303 305 306 306 306 305 304 303 302 301 300 300 299 298 297 296 296 296 296 295 295 295 294 294 294 293 292 292 291 290 291 291 291 291 290 290 290 290 289 288 289 290 290 290 289 289
285 283 283 283 284 284 283 287 293 286 289 287 289 286 289 292 291 293 295 295 292 292 293 293 294 295 296 297 297 296 297 297 298 300 301 299 298 298 299 300 301 301 300 300 301 300 299 299 299 299 300 302 303 304 305 304 304 303 301 300 299 298 299 299 297 296 296 295 295 295 295 295 295 294 294 293 293 293 292 291 290 290 290 290 290 290 290 290 289 289 288 288 288 289 289 289 288
284 282 282 283 281 282 286 285 287 288 287 286 284 286 288 290 292 292 294 295 293 293 294 295 295 295 296 296 296 297 297 297 298 300 301 303 298 298 298 299 300 300 300 300 300 300 300 299 298 299 299 300 301 302 303 303 302 300 298 297 297 297 297 297 297 295 295 295 294 296 295 294 295 294 293 293 293 292 291 291 289 290 290 290 289 289 289 289 288 288 289 288 287 288 289 289 288
286 285 284 282 283 284 283 287 289 288 289 287 287 287 290 291 291 292 293 293 292 294 295 295 295 295 295 295 296 296 297 298 300 301 302 302 300 299 298 298 299 300 300 299 299 299 299 298 298 298 298 298 299 300 301 300 298 296 295 294 294 295 295 295 295 295 295 294 295 295 295 295 295 293 293 293 293 292 291 290 289 289 290 289 289 288 288 288 288 287 288 288 287 287 287 287 288
284 284 284 284 284 285 286 288 289 287 286 287 288 289 290 290 291 292 293 293 291 292 293 295 296 296 296 296 296 297 297 298 301 302 302 301 301 299 298 297 297 298 299 299 298 298 299 298 297 296 297 298 298 298 298 298 296 295 295 293 293 294 294 295 294 294 294 294 295 295 295 294 295 294 293 292 292 292 291 290 289 289 289 289 289 289 289 289 288 288 288 288 287 287 286 286 287
286 285 283 285 284 285 289 289 290 286 287 283 285 288 289 290 292 293 294 293 293 294 294 294 295 296 297 297 297 297 298 300 300 300 300 299 298 298 297 297 296 296 297 297 298 298 298 298 297 297 297 297 297 298 298 298 298 297 295 294 295 295 294 293 293 293 293 294 294 294 294 294 294 294 293 292 292 292 290 289 289 288 288 289 289 290 289 288 287 287 287 287 287 287 287 286 286
285 285 285 283 285 286 289 289 290 287 284 286 285 286 288 289 292 294 294 293 294 295 295 295 296 296 297 297 297 297 298 298 299 299 299 297 297 297 296 296 296 297 298 297 298 298 298 298 298 298 297 297 297 297 298 298 298 298 297 297 296 296 296 295 295 295 294 294 294 294 294 294 294 293 293 292 292 291 290 290 289 288 288 289 288 287 288 287 287 287 287 287 285 286 287 286 286
283 283 282 284 286 284 284 285 282 284 285 286 287 285 287 290 292 293 294 294 294 295 295 295 296 296 296 297 297 296 297 297 298 298 297 296 296 295 294 294 296 296 296 296 297 297 298 298 298 297 297 297 297 297 297 298 298 298 298 296 296 296 294 294 294 294 294 293 292 293 293 293 293 293 293 292 292 291 291 290 289 288 288 289 288 287 287 287 286 286 287 288 288 286 286 285 287
285 285 284 285 285 287 285 285 284 284 287 284 285 287 289 288 288 288 289 291 292 294 294 294 295 296 297 297 297 298 297 297 297 297 297 296 296 296 296 296 295 295 296 296 297 297 297 298 298 297 297 296 297 297 297 298 297 296 294 293 294 292 293 293 292 291 292 292 292 291 292 293 293 293 292 292 292 291 291 290 289 289 288 288 288 288 287 287 287 287 287 287 287 289 286 286 285
285 283 286 288 288 286 285 286 284 282 282 283 283 284 285 284 287 286 288 287 289 290 291 293 294 295 295 295 296 297 298 296 296 296 296 296 296 296 295 293 293 294 295 296 297 297 298 298 298 297 297 296 296 296 297 297 296 295 293 292 290 291 291 290 290 290 290 290 291 292 292 292 292 292 292 292 292 291 291 290 290 289 288 287 288 288 288 287 287 286 287 287 287 289 289 286 285
283 285 285 288 287 285 284 283 284 279 278 284 282 280 281 284 288 289 290 289 291 292 290 293 293 293 293 294 295 295 295 295 295 295 295 295 296 295 296 295 295 294 295 296 296 296 297 298 297 297 297 296 296 296 296 296 296 295 294 294 294 293 292 292 293 294 293 292 293 291 291 291 292 292 292 292 292 291 291 290 290 289 288 287 288 287 287 287 287 287 287 286 287 288 288 287 286
283 283 283 285 284 283 284 283 283 282 281 283 283 284 280 283 286 289 289 289 290 291 293 292 292 293 293 294 294 295 295 294 295 295 295 295 294 294 295 296 295 295 295 295 296 296 296 296 297 297 297 296 296 296 296 296 295 295 294 294 294 294 294 294 293 293 294 293 292 291 291 290 291 292 291 291 291 291 290 290 289 289 288 288 287 286 287 287 287 287 287 287 287 287 288 290 287
282 283 283 284 284 284 282 283 281 280 280 280 281 284 280 281 286 283 286 287 289 290 291 292 292 293 294 294 295 294 294 294 293 294 295 294 294 294 294 294 295 294 294 294 295 295 296 296 296 296 296 296 295 295 295 295 296 295 295 294 294 295 295 295 294 294 292 292 291 292 291 290 290 291 291 291 291 291 290 289 289 288 288 287 287 287 287 287 287 286 286 285 285 285 286 289 287
285 283 283 282 282 281 282 280 281 278 277 279 280 283 279 284 287 285 282 286 287 287 289 290 291 293 295 294 294 294 294 294 294 293 293 294 294 294 293 292 294 293 292 292 293 293 294 294 294 294 295 295 295 294 295 295 295 295 294 294 294 294 294 292 292 292 292 291 291 291 290 290 289 289 290 290 290 290 290 289 289 288 288 287 287 287 287 287 286 286 286 286 286 286 285 286 288
284 285 286 282 281 279 278 278 277 276 275 281 282 283 284 281 286 284 285 286 286 288 287 289 291 291 291 291 292 294 294 294 294 293 293 293 293 293 292 294 294 294 292 291 292 292 293 293 293 293 294 294 294 294 294 294 294 295 294 294 294 294 294 292 290 291 291 290 290 290 290 290 289 289 289 289 289 289 289 289 288 288 288 287 287 287 286 286 286 286 286 286 286 285 285 285 287
286 283 282 282 284 278 275 269 275 275 273 282 282 283 284 279 282 284 283 284 283 288 290 291 292 292 292 293 292 293 293 293 293 293 293 293 294 295 295 294 294 294 294 292 291 291 292 292 292 292 292 293 293 293 293 294 294 294 294 294 294 294 294 292 291 291 290 290 290 290 290 289 288 289 289 288 288 289 289 288 288 288 287 287 287 287 286 286 286 286 285 285 285 285 286 285 286
285 283 285 281 278 277 272 273 271 273 279 279 280 282 280 281 288 287 288 290 289 287 289 291 292 294 294 294 292 293 292 292 292 292 292 293 293 293 293 294 294 293 293 292 290 290 290 291 290 291 291 291 292 292 293 293 293 294 294 294 294 294 293 293 292 292 291 290 290 290 289 288 288 288 288 288 288 288 288 288 287 287 287 287 287 287 287 286 286 285 285 285 285 284 284 284 284
283 283 280 278 274 272 273 272 269 272 278 278 280 282 280 286 287 289 292 295 296 293 290 290 291 291 292 291 292 291 292 292 292 291 291 292 292 293 293 293 293 293 293 292 291 290 290 290 290 290 290 291 291 292 292 292 293 293 294 294 294 293 293 293 293 292 292 291 291 290 289 289 288 288 288 288 289 288 288 288 288 287 287 287 287 286 286 286 285 284 285 284 284 285 285 284 285
285 285 286 283 280 274 272 275 278 281 281 277 278 277 276 276 284 285 291 291 287 286 287 287 287 288 288 288 288 291 291 292 291 291 291 291 291 292 293 293 293 293 292 293 292 291 290 290 290 289 289 290 290 291 291 292 292 293 293 293 293 293 293 293 293 293 292 291 291 291 290 290 290 289 289 289 289 288 288 288 288 287 287 287 286 286 286 285 285 285 285 285 285 285 284 284 284
285 284 283 280 282 283 282 284 282 283 283 277 275 279 279 286 287 288 285 286 289 288 288 286 288 288 287 289 290 290 290 290 290 290 290 291 291 291 292 292 292 291 291 291 291 291 291 290 289 289 289 289 289 290 290 291 291 292 292 292 292 292 292 293 293 292 292 291 290 290 290 290 290 290 290 290 289 289 288 288 287 287 287 286 286 286 286 285 285 284 284 284 284 284 283 283 283
283 284 282 285 286 286 282 282 284 280 278 279 284 282 285 288 292 294 288 288 288 286 287 286 288 287 287 290 290 290 290 290 289 289 289 289 289 290 290 290 290 290 290 290 290 290 290 290 290 289 289 289 289 289 290 290 290 291 291 292 292 292 292 291 292 291 291 290 290 290 290 290 290 290 290 289 289 288 288 287 287 287 287 286 286 286 285 285 284 284 284 283 283 283 283 283 283
284 278 284 286 287 286 283 278 278 279 278 279 286 282 284 285 282 286 287 287 288 287 285 285 286 287 290 289 289 289 289 289 289 288 288 288 288 288 288 289 289 289 290 290 290 290 291 291 290 289 289 289 289 289 289 289 289 290 290 291 291 291 291 291 292 291 291 290 289 289 289 289 288 289 288 288 288 287 287 287 287 286 286 286 285 285 285 284 284 283 284 283 284 283 282 283 282
285 284 286 285 280 279 280 276 274 276 276 278 282 285 285 287 287 291 290 290 289 288 285 287 288 288 287 288 288 288 288 287 287 287 286 286 286 286 287 287 288 289 289 290 290 290 290 290 290 290 290 289 289 289 289 289 289 289 290 290 290 290 290 291 291 290 290 289 289 288 288 289 288 288 287 287 287 287 286 286 286 286 286 285 285 284 284 283 283 283 283 283 282 282 282 281 282
285 286 284 284 282 281 279 282 278 280 277 279 279 284 281 289 289 291 290 287 287 287 287 288 286 286 286 285 285 285 285 285 285 285 285 285 286 286 286 286 286 287 288 289 289 289 289 290 290 290 290 290 290 289 289 288 289 289 289 290 290 290 290 290 290 290 289 288 289 288 288 287 288 288 287 287 287 286 286 286 286 286 285 285 284 284 283 283 282 282 282 282 282 281 281 281 281
283 283 281 282 281 282 283 282 280 280 279 279 279 278 284 289 290 289 288 287 287 287 288 287 285 284 284 284 284 284 284 284 284 284 284 285 285 285 286 286 287 287 288 288 288 288 288 289 289 289 289 289 289 290 289 289 289 289 288 288 289 289 289 289 289 289 289 288 288 288 288 288 287 287 287 286 286 286 286 286 286 285 285 284 284 283 283 283 282 282 282 282 281 281 281 281 281
282 284 282 285 282 281 279 278 286 282 281 278 278 277 285 291 293 292 288 287 286 286 286 285 283 283 283 283 283 283 283 283 283 284 284 284 285 285 285 286 286 286 287 287 288 287 287 287 288 289 289 289 289 289 289 289 289 289 288 288 288 288 288 288 288 288 288 288 288 288 288 287 287 287 286 286 286 286 286 286 285 285 285 284 284 283 283 282 282 281 281 281 281 280 280 280 280
Wind_Speed
4 5 3 1 4 2 2 6 0 3 2 3 4 0 3 2 2 5 6 4 2 2 3 1 4 4 3 3 7 3 3 7 7 5 2 2 1 3 8 8 4 2 9 7 6 8 10 10 11 12 14 14 14 13 12 11 11 11 10 10 10 10 10 10 10 10 10 10 11 11 11 10 10 9 9 7 8 8 7 7 9 10 10 11 11 10 14 14 13 13 13 13 12 12 12 12 11
3 4 2 1 1 1 1 1 5 4 4 3 5 2 4 3 2 6 4 4 3 1 1 3 6 3 1 0 3 1 6 11 8 2 5 3 6 4 9 9 4 7 9 7 7 8 9 11 11 12 15 15 14 14 13 12 12 11 11 11 11 10 10 11 11 11 12 12 11 11 10 10 9 8 7 7 6 6 6 5 6 6 8 9 10 9 12 13 12 12 12 12 12 11 11 11 11
3 5 1 3 3 4 3 4 3 1 1 5 6 6 2 3 6 7 7 6 6 1 3 2 1 3 2 1 3 4 6 1 4 3 5 3 1 4 10 9 5 5 8 6 8 9 8 9 10 13 16 15 15 15 14 13 13 12 12 11 11 11 12 11 12 12 12 11 10 10 8 8 8 6 6 5 5 5 4 5 8 6 5 6 7 8 11 11 12 11 11 12 12 11 11 11 11
2 6 2 3 2 3 1 4 4 4 2 5 5 5 5 4 8 8 5 8 7 3 1 3 5 1 4 4 5 3 7 5 6 6 3 3 6 1 10 8 4 4 5 7 8 8 8 7 11 13 16 16 16 15 14 14 14 13 13 12 11 12 12 11 11 11 10 10 9 8 7 7 7 6 5 5 4 4 4 4 5 5 6 7 6 5 9 10 11 11 11 12 12 11 11 11 11
2 2 3 4 3 1 2 1 2 4 4 5 3 4 6 7 8 5 6 5 7 5 2 1 1 1 2 2 0 1 4 4 4 4 3 4 2 3 10 7 5 5 8 8 9 8 7 9 11 13 15 16 16 15 15 14 13 13 12 12 12 11 10 10 9 8 9 8 8 7 7 7 7 6 5 5 4 4 4 4 6 7 8 9 9 8 9 10 10 10 11 12 12 12 12 11 11
5 1 4 2 0 2 5 1 0 5 5 6 1 6 6 6 5 5 9 10 6 6 4 1 1 1 1 5 5 2 4 2 2 3 4 2 3 4 9 7 8 8 9 6 7 6 5 8 11 12 17 17 16 15 14 13 13 12 10 10 11 11 10 9 9 9 9 8 8 8 8 8 7 6 5 5 5 6 5 6 7 8 8 9 9 9 9 10 10 10 11 11 12 12 12 12 12
0 4 5 4 2 4 3 2 5 5 8 9 5 7 9 2 7 4 8 7 2 1 2 2 2 0 2 4 2 7 2 1 3 1 6 3 1 5 8 8 8 10 9 6 4 5 6 8 11 12 14 14 16 15 14 12 11 10 10 10 10 10 11 10 10 11 10 10 9 9 9 8 7 8 7 6 6 7 7 7 7 9 9 9 8 9 10 11 11 10 11 11 12 12 12 12 12
2 2 2 1 1 2 0 1 5 5 5 7 3 6 10 7 2 2 7 2 3 0 1 2 2 2 6 2 2 1 3 5 2 1 3 3 3 7 8 9 9 10 10 4 4 4 5 7 10 11 11 13 12 12 13 12 12 12 10 10 11 11 11 11 11 12 11 11 10 11 10 10 9 8 8 8 8 7 8 8 8 9 9 9 9 10 10 11 11 11 11 12 12 12 12 12 12
5 6 1 4 1 3 1 4 5 4 8 4 10 7 11 9 7 3 8 3 5 3 1 3 6 1 3 4 6 3 5 2 3 4 4 2 6 7 6 9 10 9 9 5 4 4 5 6 8 10 10 12 11 12 15 13 14 13 12 12 12 12 13 13 13 10 9 10 10 10 10 9 9 9 9 10 9 9 9 9 9 9 10 10 10 10 10 11 11 11 12 12 12 12 12 12 12
2 2 1 2 4 2 3 5 1 4 6 4 5 10 8 3 3 6 6 7 7 1 3 2 2 5 1 5 7 4 2 3 4 3 3 4 5 7 8 10 9 11 9 5 4 4 4 5 7 8 9 11 11 12 15 13 14 12 12 13 14 13 12 12 9 10 10 11 10 10 10 10 10 11 10 10 11 10 10 10 10 10 10 10 10 10 10 10 11 11 12 12 12 12 12 12 12
1 5 3 2 2 1 3 6 5 7 6 5 10 13 12 5 4 3 5 5 2 2 2 3 1 7 1 5 5 0 3 3 2 5 5 5 5 7 7 8 5 7 9 6 5 4 4 5 7 8 7 6 10 12 13 11 13 14 14 14 13 11 12 12 12 11 11 11 11 12 12 12 12 12 12 12 12 11 11 11 11 12 11 11 11 11 11 11 11 12 12 12 12 12 12 12 12
1 1 2 3 2 4 4 3 6 9 9 4 6 1 1 5 4 1 2 2 1 3 6 7 1 6 1 3 4 1 5 6 6 3 3 4 5 6 5 4 5 6 6 6 4 5 5 5 6 6 7 6 7 9 11 12 12 12 12 13 12 12 12 12 12 12 12 12 13 13 13 12 12 13 13 13 12 12 12 12 12 12 12 12 12 12 12 12 12 12 12 12 12 12 12 12 12
3 2 5 4 2 2 2 2 7 3 8 5 3 1 2 7 3 3 4 3 1 3 5 14 2 1 3 3 4 6 4 2 4 2 4 4 5 5 5 5 5 5 5 4 6 6 5 5 5 5 5 7 7 7 8 8 8 9 10 14 14 13 13 12 12 12 13 13 14 13 13 13 13 13 13 13 13 13 13 13 13 13 13 13 13 13 13 13 13 13 13 12 12 12 12 12 13
4 6 5 2 3 2 2 4 2 3 6 4 5 1 3 2 4 5 5 1 4 2 2 2 1 3 4 3 6 4 3 3 2 1 3 4 4 4 6 5 5 5 5 6 7 6 6 5 5 5 5 5 6 7 8 9 9 10 11 12 12 11 12 13 13 12 13 13 13 12 12 12 13 13 13 13 13 13 13 13 13 13 13 13 13 14 13 14 14 13 13 13 13 13 13 13 13
1 1 5 4 1 1 4 1 2 4 7 2 2 0 0 5 3 4 4 2 9 4 0 1 4 3 6 5 7 5 2 2 2 3 5 4 4 4 5 4 5 5 5 5 5 6 7 6 6 5 5 5 7 6 6 7 10 10 10 11 10 11 11 11 11 11 11 11 11 11 11 11 11 11 12 12 13 12 11 11 12 13 13 13 13 13 13 13 13 13 13 13 13 13 13 13 13
5 5 3 1 2 2 4 4 1 1 8 4 2 1 1 5 3 1 5 4 2 1 0 4 0 5 1 4 7 2 2 3 3 5 6 6 4 3 3 3 4 5 5 6 6 6 6 7 6 6 5 6 6 6 6 6 8 10 11 11 10 11 11 10 10 11 10 10 11 11 11 9 9 9 11 10 11 11 10 8 11 13 13 13 13 13 13 13 13 13 13 13 13 13 13 13 13
3 4 1 3 4 3 5 3 4 4 6 5 5 1 1 1 0 4 1 0 3 4 1 4 5 0 6 7 2 3 1 4 4 7 7 5 4 4 3 3 4 5 5 7 8 7 7 7 8 6 6 7 7 7 6 6 7 9 8 10 10 11 10 10 10 11 10 10 10 10 9 6 5 5 7 6 8 7 8 9 11 13 13 13 13 13 13 12 12 12 12 13 12 12 12 13 13
1 2 4 1 5 3 7 7 11 2 1 3 1 4 0 5 2 1 1 1 1 5 7 7 5 10 7 2 1 2 5 7 7 10 7 7 5 5 6 7 7 10 9 8 9 9 8 9 10 8 7 8 7 6 5 5 6 8 7 7 8 8 9 9 9 7 7 7 9 8 5 5 4 4 5 6 5 7 7 9 10 11 13 13 13 13 13 13 13 13 13 13 13 12 11 5 6
3 2 2 7 5 8 10 7 8 1 9 4 2 2 2 8 0 2 1 3 2 6 9 3 7 11 8 6 5 5 7 7 9 9 12 12 10 12 10 7 10 8 9 10 9 12 10 8 10 10 8 7 8 8 6 5 6 6 6 6 6 7 7 9 7 8 6 7 7 6 5 4 4 4 4 5 5 7 8 9 10 11 13 13 12 13 13 13 13 13 14 13 12 11 6 4 4
2 4 5 7 8 6 7 4 7 12 3 4 5 4 2 4 1 0 3 5 2 9 12 7 7 14 12 7 7 6 7 8 8 10 12 13 11 12 10 11 9 10 11 10 9 9 10 11 12 11 12 8 8 7 6 5 5 6 6 5 5 6 6 6 7 7 6 7 7 5 4 4 4 4 5 8 7 5 6 8 9 10 9 8 10 8 12 13 14 14 13 12 7 4 4 4 4
1 2 5 6 4 2 6 11 11 8 1 3 3 3 5 5 7 2 2 3 9 13 14 15 16 12 13 6 7 7 8 9 10 10 11 12 12 8 10 11 13 12 8 6 7 12 13 12 10 12 11 10 11 7 10 10 7 6 6 5 6 5 5 5 5 6 6 7 6 5 5 5 4 4 5 4 4 4 4 4 4 4 4 5 6 5 4 4 5 5 5 5 4 4 4 4 3
3 9 5 6 2 3 7 10 7 3 2 4 3 4 9 1 1 4 4 8 12 10 11 11 16 14 11 11 7 7 9 11 11 12 15 15 17 15 10 8 7 5 6 8 12 10 12 12 13 10 11 11 11 10 12 10 7 9 7 6 6 5 6 6 6 5 6 6 6 6 6 6 5 4 4 5 4 4 5 4 3 3 4 5 3 4 3 4 4 4 4 4 4 4 4 4 4
6 3 6 8 6 6 1 4 4 6 2 4 2 5 5 2 6 4 9 13 16 16 11 11 11 9 8 4 4 8 9 12 12 16 16 14 14 13 12 10 9 10 9 11 7 7 9 11 13 12 11 10 13 10 9 10 11 11 7 6 7 6 5 6 6 6 6 7 7 7 7 6 6 5 5 5 6 4 5 4 4 3 4 4 3 4 4 3 3 4 4 4 4 5 5 4 4
2 9 1 6 5 12 7 3 5 4 6 7 4 4 8 4 9 0 8 15 19 20 16 11 8 4 3 5 8 11 12 14 16 18 16 18 18 19 16 13 10 6 6 8 7 8 8 14 13 13 12 13 11 11 10 9 8 8 7 7 7 7 7 7 6 6 6 6 7 6 6 7 7 7 6 6 5 4 5 4 4 4 4 4 3 3 5 4 4 4 4 4 4 4 5 4 4
5 8 4 5 2 7 8 5 4 5 10 9 4 6 19 10 6 5 16 14 17 19 16 8 8 7 7 9 14 11 10 9 13 15 9 10 12 12 9 8 8 8 11 9 8 9 11 10 13 15 14 13 11 10 11 8 8 7 7 7 7 7 7 7 7 6 7 6 7 7 8 8 6 6 7 6 5 5 4 5 4 4 4 4 4 4 4 6 4 4 4 4 4 4 4 4 4
8 14 1 4 5 6 5 6 5 8 6 3 1 13 16 13 4 12 28 19 17 18 14 12 7 9 11 13 15 12 12 13 13 11 14 11 9 10 15 11 9 11 14 10 10 10 8 10 13 16 17 14 11 12 10 9 9 9 9 9 7 7 7 6 7 7 6 7 7 8 8 7 8 8 7 6 7 6 5 5 4 4 5 4 4 5 4 4 5 4 4 4 4 4 4 3 3
3 1 3 6 9 6 5 6 5 3 7 4 7 11 14 3 3 13 11 9 4 7 12 7 4 10 12 10 11 10 11 15 16 9 4 9 10 13 16 11 12 17 11 12 11 10 10 11 12 13 14 13 10 14 11 10 9 10 10 7 7 8 7 7 7 6 6 7 7 8 8 8 7 7 7 7 6 6 6 6 5 5 4 4 4 4 3 3 4 4 4 4 4 4 4 3 3
4 0 4 8 7 7 9 4 13 0 9 8 11 13 8 5 3 17 24 3 3 4 12 11 7 11 10 11 11 8 8 14 9 5 14 11 13 14 12 12 16 16 13 17 12 9 9 13 13 13 14 13 14 13 12 11 11 11 11 7 8 8 8 7 7 7 7 7 8 8 8 8 7 7 8 7 7 7 6 6 5 6 5 4 4 4 4 3 4 4 4 3 3 3 4 3 2
0 2 5 8 8 11 9 6 8 9 8 5 8 1 5 3 9 20 18 2 5 7 11 13 11 11 11 11 9 9 12 12 6 9 15 16 13 11 16 17 17 15 13 16 12 11 13 12 13 14 14 15 15 14 12 12 10 10 10 9 8 8 8 7 8 8 8 8 8 9 8 8 8 8 8 9 8 7 7 7 6 5 5 4 4 5 5 4 4 4 4 3 4 3 4 4 2
1 1 1 8 6 9 9 3 4 5 5 7 6 9 6 12 19 19 11 1 2 4 10 12 12 11 9 8 10 11 10 10 11 15 15 15 14 14 17 16 16 15 12 10 11 14 13 10 11 9 12 14 16 13 12 10 11 10 9 8 8 8 8 8 8 8 8 8 8 9 9 9 8 7 8 8 7 7 7 6 7 6 5 5 5 5 5 4 4 4 4 4 3 3 4 3 3
4 3 2 5 4 9 6 0 1 2 4 9 2 10 5 9 12 16 4 2 4 7 10 11 11 12 9 9 9 11 12 11 16 17 17 17 14 12 17 14 13 15 9 9 16 20 13 13 11 8 13 14 15 14 15 13 11 10 9 9 9 9 8 9 8 8 8 8 8 8 10 9 9 8 8 9 8 7 7 7 6 5 5 5 5 4 4 4 4 4 5 5 3 2 2 3 2
2 4 4 2 6 6 12 6 5 10 1 1 2 11 12 10 14 12 5 4 1 6 9 11 12 13 13 9 9 10 13 13 14 16 18 18 15 13 14 16 12 12 15 14 14 11 13 13 13 15 13 14 14 15 13 11 10 10 8 9 8 9 8 9 8 9 8 8 9 8 10 9 9 9 9 9 9 8 7 7 6 6 7 5 5 5 4 5 5 4 3 4 6 3 4 3 1
3 6 7 9 2 6 8 8 3 8 1 1 10 14 1 7 13 11 6 4 3 6 11 11 14 16 16 14 11 11 14 17 15 15 18 15 12 12 12 13 10 14 14 13 14 13 14 13 15 15 15 17 16 14 11 10 9 10 10 9 9 9 9 9 8 7 8 9 9 8 9 9 10 10 10 9 8 9 7 7 6 7 6 6 6 5 5 4 5 5 4 3 1 4 4 5 3
7 1 7 4 6 3 5 9 11 1 6 4 6 9 12 11 8 11 14 13 11 12 17 17 15 16 17 16 14 15 16 16 18 20 20 12 11 12 12 10 10 12 12 13 14 15 16 15 16 17 15 12 10 11 12 11 10 8 7 8 8 9 9 7 7 7 9 8 8 9 10 10 10 10 10 10 8 8 8 7 7 8 7 6 6 5 5 4 4 4 5 3 2 3 4 5 5
7 4 5 6 3 7 10 3 5 6 3 5 2 12 17 15 14 14 15 14 15 16 18 19 17 15 15 14 15 18 16 16 20 20 18 4 7 9 10 11 11 12 11 14 13 13 11 11 11 13 14 12 11 10 11 9 7 7 6 7 8 8 7 7 7 8 8 8 9 9 10 10 9 10 10 10 9 9 8 8 8 9 7 7 7 6 6 6 5 5 5 4 2 1 2 3 4
7 4 6 4 9 6 6 11 8 5 13 10 11 18 20 14 13 11 12 9 11 18 20 18 18 16 13 13 16 16 17 18 20 14 8 4 5 7 9 10 11 11 11 12 14 13 13 11 11 11 12 10 9 8 8 8 7 9 9 6 7 9 8 9 9 9 8 9 10 11 10 10 10 10 10 10 9 9 9 9 9 8 8 8 8 8 7 7 9 8 7 6 6 3 1 2 5
1 1 2 9 10 10 8 13 12 3 7 11 18 20 19 15 11 11 12 11 9 16 20 22 20 16 13 14 14 17 18 21 14 7 5 5 6 7 8 8 9 9 10 11 12 14 14 15 14 17 14 13 11 11 10 11 12 10 7 10 12 11 12 10 9 9 9 10 10 11 11 10 11 11 10 11 10 8 8 8 9 8 8 8 9 9 8 7 6 6 5 4 6 6 3 3 4
6 7 6 12 4 16 9 11 6 0 1 2 6 15 17 17 15 15 15 13 19 21 21 17 20 20 19 17 17 17 17 12 10 9 4 5 7 6 6 6 6 8 10 10 14 15 15 14 15 15 11 11 13 12 12 11 12 13 14 15 14 11 10 11 13 11 12 11 11 10 10 10 11 11 10 10 9 10 10 9 9 10 9 9 7 6 7 7 7 6 6 5 2 4 4 6 5
5 8 7 7 9 12 10 12 8 5 1 11 7 17 13 14 19 21 20 19 18 15 8 15 18 21 20 16 16 12 11 14 12 6 8 6 8 8 7 7 7 11 8 11 13 11 11 12 14 12 11 13 14 15 11 12 11 12 10 8 9 7 7 7 5 5 5 7 8 9 8 9 11 10 10 11 9 9 10 10 10 9 10 9 9 9 9 9 9 10 10 8 6 1 1 2 5
4 7 5 11 4 5 9 2 2 1 0 11 13 20 18 14 21 18 16 11 14 14 14 15 17 21 21 23 8 11 12 13 15 10 10 9 9 8 6 7 9 7 7 6 7 10 10 11 12 12 12 13 12 13 14 13 11 9 8 2 6 7 6 7 8 7 8 8 10 10 9 10 10 10 10 10 8 10 11 11 10 10 10 10 10 10 10 10 9 8 9 8 7 6 3 5 3
5 9 5 10 12 11 8 6 5 6 6 1 10 14 11 3 2 4 3 5 6 14 13 11 17 21 17 10 13 8 9 11 12 11 7 10 11 9 8 8 5 6 8 9 9 10 9 14 14 14 12 13 13 13 14 11 9 8 6 4 5 5 4 7 8 8 9 10 8 10 11 10 11 10 11 12 11 12 11 10 10 10 10 10 9 9 10 11 11 10 10 8 11 9 8 3 3
4 5 12 16 12 10 9 10 9 5 6 3 4 13 5 2 2 2 7 4 3 7 11 18 23 9 7 10 11 10 3 8 6 7 8 10 10 10 9 8 7 7 8 10 9 9 9 9 10 11 10 10 12 14 15 12 11 11 10 10 10 10 9 10 14 17 13 13 14 6 7 11 10 10 10 11 11 10 11 10 10 10 10 10 10 9 8 8 9 10 12 10 11 8 8 7 5
3 8 10 13 9 7 7 10 5 5 1 2 4 3 18 4 5 5 9 6 9 13 11 17 7 7 6 8 9 7 9 7 6 6 7 8 9 9 10 7 7 7 10 7 6 8 9 8 8 11 11 10 10 11 14 12 11 11 15 16 13 12 12 10 9 6 8 7 6 11 10 9 12 12 11 11 11 10 10 10 10 10 10 10 9 8 9 11 10 11 8 9 9 6 6 9 10
7 3 5 6 5 6 5 2 5 7 2 4 2 5 5 22 2 8 3 4 13 14 14 9 7 8 12 11 10 6 6 5 3 7 8 6 7 7 10 11 9 9 7 5 5 5 7 9 8 10 10 10 10 11 13 14 13 13 14 15 14 13 14 13 9 7 5 7 9 9 9 9 10 10 10 11 11 10 11 10 10 10 10 10 10 10 10 9 7 6 8 8 6 5 8 9 9
5 1 6 3 5 5 2 3 4 2 5 8 1 1 4 10 2 2 2 4 11 13 12 9 7 6 8 9 9 9 6 3 3 8 10 11 11 10 8 9 10 10 8 6 6 5 5 5 5 6 8 9 8 11 12 14 13 13 12 10 14 12 11 6 4 5 6 7 9 7 8 8 8 9 9 10 11 11 11 10 11 11 10 11 10 9 9 9 11 11 10 9 10 8 7 6 8
4 4 6 6 6 5 2 3 2 3 3 11 6 5 4 20 1 3 5 2 7 9 4 9 11 5 3 6 5 5 2 4 5 5 8 10 9 9 8 7 8 8 7 6 5 4 3 3 5 5 7 6 6 10 10 12 12 10 11 13 15 10 6 3 4 7 7 7 8 9 8 8 8 8 9 9 9 10 10 10 10 12 12 11 10 11 10 11 10 10 11 11 10 10 7 6 10
4 4 2 3 5 3 3 6 3 2 4 10 13 11 6 12 5 7 5 5 4 5 3 3 3 9 7 4 4 4 8 8 7 7 6 7 7 6 8 12 12 12 9 8 8 6 4 2 3 5 6 3 4 7 9 12 12 11 12 12 13 12 10 8 8 9 7 8 9 8 8 7 7 8 8 8 10 11 10 11 10 11 10 11 10 11 12 12 11 10 10 10 11 12 9 9 7
2 1 1 3 2 4 3 4 3 2 8 9 10 13 10 9 3 4 6 6 6 4 2 6 8 10 8 2 3 5 6 7 7 7 9 8 12 15 14 15 14 13 12 12 9 7 5 3 2 4 4 4 4 6 8 9 10 12 11 11 12 12 11 9 11 11 9 11 10 9 8 7 8 8 8 8 10 11 10 10 11 10 10 10 11 10 9 10 9 9 9 9 9 10 9 9 8
3 2 1 2 5 6 3 3 1 5 10 2 1 5 3 16 13 3 9 10 10 8 5 7 9 10 11 5 8 5 6 7 7 9 11 13 13 12 13 14 13 15 13 11 10 7 5 5 3 3 5 4 5 6 9 10 10 12 11 11 11 10 11 12 12 12 10 9 8 8 9 9 8 9 11 11 11 13 10 10 11 12 11 10 9 9 10 10 10 10 10 10 10 12 11 10 10
6 6 4 5 2 3 6 3 2 6 6 3 4 2 8 11 9 9 15 21 15 1 8 8 6 7 7 6 6 6 4 4 7 9 12 13 13 13 12 11 13 14 13 12 11 9 7 6 5 4 5 3 4 5 7 9 11 10 10 10 10 8 10 10 9 9 8 6 5 8 9 10 10 12 11 13 11 11 10 12 11 10 11 10 12 12 11 12 11 11 11 11 13 11 9 12 12
12 3 11 9 7 4 4 5 10 9 6 2 3 3 8 0 4 2 10 5 6 2 2 2 5 3 3 6 4 1 5 9 10 13 13 13 13 13 13 15 14 12 15 15 13 12 10 9 7 6 6 5 4 6 6 8 8 9 9 9 9 7 8 8 8 6 7 7 6 8 8 7 8 8 9 7 10 12 12 10 12 12 12 12 11 11 12 10 11 10 10 11 9 9 11 10 10
3 3 3 1 8 3 10 6 6 9 7 1 2 7 4 8 0 7 5 6 8 5 6 2 6 7 6 5 6 8 7 10 10 11 12 14 14 13 13 14 15 16 17 16 18 15 13 11 9 7 6 6 5 6 6 7 8 7 8 9 9 9 8 7 6 6 6 7 8 8 8 8 7 6 7 8 10 9 10 11 12 12 13 11 12 12 11 11 12 11 10 10 12 8 10 13 10
2 6 6 10 4 5 4 4 4 1 2 11 3 7 8 6 12 12 4 2 4 3 3 8 8 7 5 8 9 9 10 12 13 13 13 15 15 15 13 14 14 14 15 17 17 16 16 14 12 11 9 7 6 6 6 6 6 7 8 8 8 8 8 9 9 8 8 7 8 9 8 9 8 7 6 7 8 8 8 10 9 9 10 11 10 10 10 10 9 10 10 11 12 10 10 12 9
7 2 9 1 1 2 2 5 1 6 11 7 8 15 13 7 13 3 3 3 3 5 7 4 8 10 12 11 11 12 13 12 15 15 13 13 13 14 13 13 14 15 15 16 16 14 14 14 14 13 12 11 9 7 7 7 7 7 7 7 8 8 8 9 8 8 6 7 7 8 8 8 11 10 9 8 9 8 9 11 9 9 9 8 10 8 8 9 9 8 9 9 8 8 11 8 10
4 6 2 3 4 3 2 3 4 6 9 6 7 13 14 11 15 12 11 7 7 7 6 9 11 11 11 12 13 15 15 14 12 12 12 12 12 12 12 13 14 14 14 14 14 14 15 14 15 14 15 12 10 8 7 6 6 6 5 7 7 8 7 7 7 7 7 8 10 10 10 11 8 9 10 10 11 10 10 10 10 9 8 9 8 9 8 8 8 8 8 8 7 8 9 10 9
1 1 3 1 1 4 3 5 2 0 13 9 10 9 10 7 9 10 11 4 4 7 9 10 10 12 11 10 9 9 9 9 9 8 8 9 10 11 13 14 14 14 14 13 14 14 17 15 15 15 14 14 14 13 9 8 7 6 7 6 7 7 7 7 8 7 8 10 10 10 11 10 12 9 9 10 11 10 11 12 11 12 11 10 10 9 9 9 8 9 8 8 8 9 10 11 9
1 1 4 1 2 3 2 2 3 7 9 11 10 11 5 4 3 2 4 6 10 8 8 10 11 10 10 9 8 7 7 7 5 5 7 11 12 12 14 13 13 12 12 13 13 14 13 14 16 16 16 16 16 14 13 10 7 7 6 8 8 7 8 7 8 8 10 10 9 10 10 10 7 10 10 11 12 11 11 11 10 13 11 11 12 11 10 9 10 11 10 10 9 11 12 10 9
5 9 9 11 8 7 9 13 4 5 8 10 11 16 4 3 2 5 7 12 12 10 10 11 11 13 12 12 12 11 9 10 11 10 10 10 10 9 8 9 9 11 13 15 14 13 15 15 14 14 15 15 15 15 14 14 11 8 7 8 8 7 7 7 8 9 10 10 10 10 9 7 10 9 10 12 12 12 12 11 11 11 11 11 9 10 11 11 12 12 11 8 10 12 13 11 10
Wind_Direction
322 329 309 97 56 94 51 7 297 316 43 268 322 221 277 339 277 321 253 340 291 240 197 33 167 149 190 205 207 192 213 142 206 128 222 239 219 241 230 219 280 224 160 165 173 182 186 189 189 182 179 178 185 181 177 174 172 167 169 169 172 171 169 164 159 155 149 139 136 133 126 122 117 113 104 109 103 94 83 82 87 86 82 84 93 99 83 77 76 77 80 81 82 79 77 76 75
295 321 42 19 28 37 210 122 102 353 36 5 246 101 252 283 346 220 256 214 221 201 207 223 213 333 317 59 213 15 258 219 176 222 281 256 286 253 207 218 233 189 161 163 171 180 184 186 185 180 177 175 175 174 174 174 171 167 168 168 167 164 162 158 154 150 144 141 138 134 130 125 117 116 117 110 109 106 107 87 92 97 99 100 90 84 83 86 82 80 83 83 83 81 79 78 77
6 7 58 32 36 74 98 34 281 1 33 292 269 217 346 291 214 257 230 228 238 265 290 291 189 281 245 251 331 165 265 240 299 267 242 347 329 224 182 199 212 211 164 157 172 178 181 183 182 181 175 171 171 171 168 167 165 164 164 161 161 157 156 154 151 147 146 144 140 133 136 133 124 125 123 122 121 123 130 139 107 100 103 112 118 85 91 87 87 87 89 88 85 82 80 77 75
101 31 139 66 227 29 59 27 91 132 234 223 322 259 197 201 242 232 241 256 271 293 262 209 161 223 175 230 222 58 276 295 198 166 259 206 209 349 163 182 198 193 162 167 175 175 178 184 182 180 173 168 167 166 165 164 165 162 161 158 158 155 156 157 159 157 157 152 154 149 144 135 137 143 139 127 139 129 153 174 144 157 131 106 110 114 90 92 93 95 94 91 87 84 81 78 74
71 345 70 99 110 21 104 105 140 100 230 181 219 263 239 222 253 279 270 257 276 182 166 159 274 258 190 223 239 219 245 244 274 202 259 262 252 221 155 168 178 178 173 175 175 175 180 184 178 174 171 167 166 165 164 164 165 160 163 159 161 159 159 162 164 163 171 164 166 163 162 155 156 163 157 160 164 141 159 154 145 147 136 116 115 110 98 95 96 97 94 91 89 85 82 79 75
60 45 358 77 24 152 67 97 167 207 223 146 244 268 225 221 239 259 286 296 262 180 172 117 230 41 297 216 197 217 192 316 131 228 183 256 229 186 153 163 173 178 174 171 175 173 178 187 176 172 171 167 164 163 164 168 169 168 167 173 173 172 171 172 172 183 181 177 187 174 183 181 186 178 153 163 181 165 158 152 152 138 120 117 118 113 108 106 104 99 95 92 91 88 85 81 77
269 45 360 28 37 56 183 177 229 226 263 170 247 269 279 250 232 340 315 346 84 184 226 243 72 291 295 301 298 237 200 65 135 252 174 342 308 172 140 164 168 177 173 173 166 176 185 184 179 176 174 171 170 167 174 174 174 179 184 193 193 190 195 197 202 189 188 201 186 205 192 193 182 150 173 171 172 171 168 156 155 124 120 118 118 117 114 109 104 100 95 91 88 86 83 80 76
73 133 312 113 240 24 121 219 258 157 274 177 235 258 277 264 198 302 284 53 291 204 170 267 239 125 255 81 255 281 318 219 222 303 298 307 145 167 153 161 168 177 176 166 178 185 189 189 184 182 183 175 177 176 183 182 186 186 187 199 202 207 205 207 205 213 205 212 191 193 193 174 190 181 166 171 174 175 172 166 143 124 120 117 115 113 113 110 105 101 96 92 87 84 82 79 77
5 84 291 75 120 42 66 259 264 219 282 278 261 231 274 275 256 264 280 227 325 241 271 236 216 105 243 1 216 270 287 278 285 276 269 231 176 168 164 170 176 172 177 170 182 185 194 197 185 187 190 174 177 182 188 187 191 196 196 201 207 206 206 206 209 213 205 208 205 203 199 187 180 162 165 167 172 170 164 146 131 126 121 118 114 112 109 107 104 100 97 93 90 85 81 79 76
41 53 264 124 118 262 6 282 184 227 219 228 251 272 260 251 262 189 266 304 231 357 251 299 187 227 352 288 299 288 243 338 311 294 240 215 183 166 174 179 181 172 174 177 184 187 192 204 194 186 189 178 180 188 192 189 194 196 198 204 210 208 206 212 206 196 199 198 197 190 186 179 164 162 165 167 166 158 148 142 135 128 123 119 118 113 107 103 101 99 97 95 92 89 85 80 77
11 17 145 86 28 333 258 269 255 303 256 300 279 248 251 252 211 248 197 237 257 205 333 162 124 240 47 262 231 241 294 334 134 232 203 194 175 177 172 178 165 169 174 180 184 190 195 199 203 190 191 205 183 182 191 190 197 202 203 206 210 205 202 201 198 194 193 193 189 184 179 173 164 166 166 165 159 155 150 142 138 133 129 125 121 115 110 107 105 102 98 96 94 91 88 85 81
21 22 7 98 192 186 240 226 273 277 287 314 273 257 168 161 133 165 242 280 336 252 214 156 235 134 181 320 281 277 301 284 214 243 213 170 175 170 160 158 159 166 171 175 181 198 201 206 205 200 199 205 198 188 195 199 200 197 200 203 204 200 199 196 192 190 191 189 185 181 176 168 166 165 165 161 157 154 150 145 140 137 134 130 126 122 119 115 110 107 105 102 100 97 94 89 86
114 112 80 105 215 147 206 292 253 302 315 277 214 211 117 138 182 207 215 254 227 341 284 209 84 139 282 200 257 313 289 328 301 236 161 170 163 147 134 153 159 163 169 173 179 198 208 212 204 200 207 201 193 193 190 190 198 192 196 199 203 200 197 193 190 188 190 186 184 178 173 165 165 165 162 160 157 154 150 147 142 139 135 132 128 126 123 120 116 114 112 110 106 103 99 95 90
118 183 129 232 50 126 170 256 294 313 293 246 265 283 216 182 230 185 128 282 239 183 238 178 167 143 257 343 300 320 252 320 352 119 109 123 129 133 147 150 161 172 180 180 193 189 203 209 206 204 202 200 188 187 184 183 190 191 192 197 200 195 193 192 188 188 189 186 182 173 168 163 163 163 162 160 157 154 150 148 145 141 138 135 131 129 128 126 124 121 118 116 112 107 103 99 94
122 173 84 113 106 43 240 190 219 142 263 212 261 151 17 251 144 143 178 221 274 207 34 189 193 122 245 155 283 245 225 325 91 97 109 100 106 126 143 152 165 184 189 201 208 196 202 200 203 202 201 195 185 181 179 186 185 189 190 196 189 189 191 188 180 184 184 180 173 167 159 158 161 162 160 160 158 152 148 146 146 141 138 135 133 131 129 127 126 122 118 114 111 106 103 99 95
135 91 76 136 258 163 266 205 71 101 261 198 275 171 343 281 184 138 250 188 256 314 164 222 212 206 209 173 238 206 179 126 148 112 109 104 97 90 133 165 184 205 207 208 212 215 202 199 199 198 193 193 182 177 177 183 184 184 188 192 187 184 184 176 175 178 174 169 163 156 152 155 157 156 156 154 152 150 142 143 144 143 138 136 133 131 128 126 123 119 114 109 104 100 97 94 92
84 78 47 51 272 158 248 180 155 226 248 275 277 287 213 274 248 247 137 86 275 263 238 224 202 117 204 211 190 197 213 141 125 119 112 126 140 164 171 212 213 223 220 219 213 207 206 202 200 194 193 190 181 172 168 178 186 179 183 184 180 179 177 170 171 169 163 156 151 148 140 135 132 140 142 140 138 133 140 145 144 142 138 134 132 130 127 123 120 116 112 106 100 93 86 83 84
56 141 121 239 207 164 204 186 193 217 199 273 289 207 206 297 321 265 84 339 260 286 271 268 292 253 229 224 90 127 140 146 154 146 162 155 171 175 201 209 200 212 209 213 216 211 205 208 202 192 189 195 179 165 163 169 185 173 169 171 175 174 172 166 166 146 147 137 144 139 134 137 135 133 130 129 130 139 138 137 136 137 136 134 131 129 127 123 119 116 110 105 101 97 91 84 76
115 115 120 234 186 239 164 202 208 146 253 227 260 222 196 258 101 280 318 277 317 302 267 228 257 267 264 248 180 140 151 163 170 185 171 177 186 192 201 190 209 214 217 214 212 207 207 200 203 200 191 180 184 168 156 162 181 164 165 167 167 164 163 158 138 146 137 142 136 134 141 139 138 134 132 134 133 131 128 127 128 135 135 133 131 128 126 122 118 115 110 106 100 95 89 83 81
219 132 228 244 217 233 223 202 220 205 255 280 291 289 183 253 143 324 223 270 339 251 267 283 228 257 254 236 188 182 173 180 193 188 197 201 199 200 194 199 208 217 218 205 201 199 202 204 202 199 196 178 183 174 141 168 179 160 166 166 164 157 152 142 145 147 146 144 145 147 141 141 138 138 132 134 131 130 126 121 120 119 109 103 112 119 121 120 117 110 107 103 96 87 90 85 81
271 117 204 231 220 242 240 212 236 233 173 262 257 306 310 257 227 153 192 320 252 251 243 240 257 246 261 237 211 179 191 193 203 212 213 215 217 224 213 202 199 204 206 199 207 208 204 203 196 200 194 190 190 179 182 195 181 167 171 169 164 158 152 153 154 152 153 149 149 149 144 142 145 147 145 139 132 123 112 109 102 112 113 108 97 95 88 83 85 94 93 84 83 89 83 77 75
109 214 223 212 116 243 241 215 232 200 200 229 296 321 263 52 77 214 165 228 259 243 249 221 241 247 253 263 221 180 193 206 206 211 218 212 207 212 216 233 244 234 182 198 209 203 204 202 201 195 193 193 193 189 190 190 172 189 180 172 162 162 160 160 159 160 157 159 156 150 146 145 153 148 148 144 139 138 132 134 126 127 130 124 119 117 111 110 110 103 101 93 85 81 79 78 74
243 261 245 232 204 244 251 203 222 161 198 189 269 241 334 215 280 187 182 210 250 253 256 246 232 240 243 262 139 194 204 213 208 215 213 219 223 225 220 217 208 204 193 214 192 201 197 202 202 196 196 193 196 189 184 188 196 196 182 172 169 171 165 164 171 168 165 159 159 158 157 159 158 159 155 155 152 154 147 147 146 148 143 138 141 133 123 117 115 112 106 101 101 96 90 88 84
212 260 183 273 191 229 231 243 107 192 200 238 208 345 290 272 293 115 195 228 241 262 256 258 260 261 257 249 215 220 212 212 217 219 211 215 213 215 213 210 212 218 214 220 202 197 192 201 198 196 198 193 192 190 188 188 188 187 181 169 185 165 166 176 171 174 157 166 167 168 163 162 161 164 164 162 159 159 156 150 147 150 147 143 146 140 131 129 121 115 115 114 112 105 108 102 100
212 263 213 266 172 242 267 268 259 261 251 258 322 291 265 266 251 322 259 229 248 258 267 269 263 257 257 249 257 242 235 235 238 233 231 238 232 241 244 238 223 205 224 207 201 201 199 192 193 201 200 197 193 187 194 190 185 185 182 184 185 169 182 177 170 163 173 168 172 171 168 164 171 168 166 167 155 164 151 158 163 160 154 152 153 148 144 137 132 136 133 129 126 123 120 111 106
207 232 225 290 275 275 268 303 240 228 268 182 165 250 266 275 221 251 259 258 243 257 281 269 261 261 251 247 250 247 239 236 239 239 224 229 234 235 238 219 208 218 219 205 197 206 186 182 193 200 199 195 191 188 196 189 188 188 191 189 181 174 185 172 163 178 175 171 175 180 177 172 172 169 165 162 166 162 161 159 164 164 163 159 161 149 161 142 142 137 131 129 128 126 114 109 110
167 217 252 266 273 315 285 230 270 227 243 152 197 252 263 272 76 280 260 228 253 266 261 274 241 249 250 246 251 245 237 241 233 233 250 227 226 219 236 213 213 226 210 216 205 202 191 181 194 196 198 196 188 195 196 195 185 196 193 182 179 186 173 167 178 177 176 184 179 174 178 178 167 170 166 164 169 161 164 166 168 160 161 165 161 138 141 140 133 135 142 139 138 130 114 117 120
63 130 311 287 293 270 248 259 263 273 282 194 202 248 274 288 127 248 269 138 195 254 276 275 256 256 255 250 249 250 240 249 244 193 235 228 222 210 223 206 217 221 204 218 209 191 180 193 190 191 193 191 194 197 196 195 194 197 194 179 187 181 166 179 179 178 183 185 179 180 180 175 171 170 166 165 169 166 168 171 162 168 165 156 151 138 135 134 127 119 111 106 110 115 119 118 116
75 13 314 289 327 319 270 241 264 157 251 158 162 147 305 247 220 250 255 284 234 241 265 278 272 256 256 260 258 253 239 250 230 223 233 233 231 211 223 216 216 213 217 217 202 187 196 188 190 191 188 193 195 193 195 198 192 194 194 189 184 173 180 176 183 185 183 182 180 183 179 175 178 172 172 168 168 170 166 164 166 171 160 152 141 137 128 128 127 127 114 117 112 114 118 112 104
335 57 161 320 330 302 299 160 23 154 249 142 143 280 190 241 243 254 274 209 218 261 265 267 273 271 255 254 252 257 253 249 241 232 234 233 231 220 224 223 212 215 213 205 186 202 198 196 195 185 189 192 196 193 194 194 195 194 194 182 180 177 184 183 188 185 181 180 182 181 180 181 177 176 167 168 167 167 170 172 165 162 158 147 138 145 142 145 138 134 136 135 134 142 135 130 135
261 243 100 246 325 264 292 52 99 316 211 175 104 258 220 269 266 261 275 199 194 251 261 271 272 274 267 254 254 255 261 233 240 238 238 236 234 227 227 231 211 216 210 193 198 209 189 196 188 189 191 194 192 196 197 199 194 192 185 183 184 183 183 189 187 181 184 183 179 183 184 180 178 173 175 167 169 169 168 167 170 162 150 146 146 151 141 140 142 148 154 143 130 132 122 127 131
299 1 265 324 192 278 301 292 187 254 342 78 118 261 256 243 262 267 295 28 152 247 258 265 272 273 273 263 260 262 262 259 244 246 242 239 230 233 226 234 212 212 210 207 209 197 198 196 191 199 188 193 194 197 195 192 189 188 185 187 184 184 187 191 186 187 185 179 185 181 181 179 176 177 174 172 167 174 171 170 165 151 153 146 146 143 145 154 156 150 168 160 143 149 144 129 131
347 205 262 260 237 260 338 282 206 233 100 268 178 259 275 286 253 276 289 275 232 252 267 264 264 270 274 274 267 264 268 270 263 251 249 239 237 233 237 237 216 217 213 209 205 197 205 196 197 198 190 195 194 192 188 189 185 189 188 185 185 183 192 192 188 182 184 187 185 182 177 179 180 178 176 174 169 171 172 166 157 156 152 150 150 150 158 157 159 159 166 197 212 151 161 139 136
264 188 232 195 240 317 285 303 289 117 178 227 238 249 246 260 281 296 301 294 290 284 276 268 260 264 270 276 273 266 262 265 271 267 260 234 233 227 235 234 222 218 218 215 209 201 203 196 199 200 201 195 193 191 189 187 188 179 181 182 185 191 198 194 188 184 194 186 181 186 176 183 180 177 175 175 176 173 168 161 154 155 152 149 149 156 161 154 166 176 166 187 184 161 162 156 144
243 240 270 288 252 225 249 312 264 353 170 219 313 256 263 262 273 274 271 281 289 279 274 273 271 261 261 267 272 268 266 263 260 259 267 301 232 229 226 225 220 213 212 209 206 209 206 202 199 201 199 192 189 188 190 187 173 170 156 168 186 196 198 197 191 196 192 183 190 183 179 185 177 175 175 176 173 170 166 162 158 159 155 152 150 158 161 168 172 185 179 156 161 249 175 152 139
265 257 247 267 280 253 244 237 275 247 281 288 271 271 278 278 267 266 274 260 259 278 280 280 272 267 263 257 259 269 268 266 260 273 297 296 225 225 222 220 220 214 211 205 205 204 204 195 197 200 200 186 183 178 170 175 170 178 175 161 192 206 196 197 196 199 182 192 191 186 184 183 175 178 178 176 174 170 167 165 159 157 157 155 159 166 176 180 178 175 183 159 149 132 77 126 141
110 184 277 261 269 278 260 273 266 273 300 240 257 267 275 278 276 274 267 277 259 262 271 272 279 285 273 261 256 255 263 261 281 293 296 283 250 237 231 220 222 217 215 203 203 207 201 198 189 200 195 184 179 175 180 177 179 178 184 196 203 189 194 188 193 195 192 197 188 190 182 182 177 177 179 175 177 167 167 156 154 162 162 166 170 183 174 168 172 175 150 164 157 151 158 170 178
273 271 272 273 230 278 257 287 276 57 253 280 240 273 272 282 280 268 261 252 258 250 258 275 283 279 278 269 265 258 262 289 289 298 358 311 292 269 250 233 213 215 223 203 209 208 204 200 199 206 185 188 191 188 185 188 191 186 182 191 192 186 182 185 197 190 197 196 194 190 186 181 178 181 176 176 174 171 161 163 168 167 165 173 172 153 157 165 166 168 165 161 240 181 159 181 182
245 236 261 297 264 261 276 251 289 296 153 272 272 282 273 270 269 263 250 244 250 262 251 259 266 275 273 277 263 285 294 283 298 336 22 329 298 287 265 248 239 228 227 206 216 207 205 203 211 201 192 193 198 194 187 196 193 197 198 203 194 188 201 208 205 196 188 193 194 192 187 184 184 180 174 178 175 172 169 166 172 164 171 161 162 170 170 176 179 178 183 179 161 166 102 162 204
220 264 274 257 275 307 307 254 360 328 133 296 302 297 295 265 259 258 262 251 252 254 246 243 249 257 264 261 317 291 296 302 306 10 348 328 289 279 278 262 244 242 245 234 215 211 208 212 211 200 200 200 198 199 200 201 197 197 200 99 178 191 188 180 191 181 189 182 196 190 193 187 180 181 175 173 175 179 174 176 166 170 171 174 171 167 175 180 176 184 190 204 171 148 183 181 226
208 227 250 271 264 249 226 275 342 315 291 277 313 287 292 276 330 331 324 255 227 257 261 253 252 247 257 325 289 273 282 313 332 342 338 304 314 306 284 271 271 246 239 235 218 209 207 212 207 201 200 198 198 195 195 185 167 161 152 89 108 118 101 164 184 206 194 191 190 192 193 178 183 178 175 182 182 180 179 175 171 170 169 174 174 176 179 186 184 186 183 181 194 179 165 157 186
252 223 210 239 253 278 271 289 352 1 317 351 20 330 301 263 136 293 271 3 251 254 242 248 243 269 5 280 288 305 343 51 349 323 308 305 303 306 303 287 267 248 244 236 223 219 215 215 205 202 203 200 200 196 190 181 183 176 164 166 173 184 189 181 194 200 178 185 197 146 158 191 178 184 181 181 185 178 179 176 171 168 172 174 182 183 177 170 187 188 194 194 197 230 168 150 151
308 265 210 237 248 251 269 288 9 300 225 318 45 91 292 158 262 270 263 263 272 264 235 255 320 336 299 288 289 311 20 24 358 320 305 320 317 315 309 296 272 261 255 253 235 227 220 215 197 200 201 201 199 194 186 186 188 191 192 195 195 191 198 213 213 200 185 189 158 181 186 173 185 184 182 182 182 180 174 175 177 176 173 174 174 174 181 189 187 193 180 197 207 179 160 172 172
255 239 175 197 216 231 243 224 198 251 253 288 180 170 247 299 156 226 255 234 250 259 271 295 311 314 306 301 299 354 40 59 316 323 321 309 304 306 307 318 319 296 303 312 272 264 235 224 207 202 201 201 194 187 188 192 194 197 199 205 206 207 210 214 193 193 174 172 184 183 179 185 184 188 180 183 183 179 178 178 177 173 174 178 175 187 187 183 181 187 194 202 193 199 202 186 166
221 232 153 165 202 210 159 171 207 235 6 306 319 63 306 258 278 327 174 188 257 260 264 267 255 272 275 284 307 26 23 333 338 337 332 328 328 325 317 317 321 320 324 309 294 281 273 260 235 220 214 201 192 189 192 198 202 200 202 205 212 219 220 215 151 160 176 175 186 178 184 180 182 189 186 181 185 183 183 179 176 177 176 177 181 186 186 178 185 181 182 187 199 199 209 210 158
255 118 81 77 78 65 120 117 111 320 41 275 174 191 225 282 69 195 7 286 264 255 245 292 288 226 234 281 8 15 318 315 333 326 309 317 319 322 326 306 334 344 334 328 325 326 306 278 242 231 228 215 198 190 196 203 206 203 209 213 219 220 208 156 150 170 178 173 191 190 184 178 184 183 188 187 184 187 183 180 182 183 183 178 181 185 179 180 186 190 191 193 192 198 200 203 194
120 118 71 13 41 49 34 64 93 43 262 262 173 201 175 279 299 178 138 206 213 262 299 267 294 322 330 23 48 347 343 353 351 342 322 311 308 318 347 11 355 355 1 6 2 0 350 313 245 232 237 236 204 200 197 203 204 209 216 215 217 217 206 180 178 188 177 176 195 188 185 184 179 189 181 187 189 187 188 187 185 188 184 186 182 181 188 184 183 185 185 188 194 197 195 194 201
143 94 135 30 315 19 32 343 44 185 273 265 186 190 180 225 292 300 239 275 245 223 359 352 318 308 287 74 59 335 8 354 348 351 349 352 5 6 10 15 5 356 3 7 359 351 355 341 346 247 253 215 197 195 203 212 207 213 220 218 218 218 206 201 203 199 189 188 190 187 177 172 188 186 186 189 195 189 188 188 188 186 189 184 191 188 181 183 179 179 183 190 195 200 195 193 195
121 91 62 249 277 25 323 43 312 188 227 267 24 121 2 248 242 279 288 275 268 220 232 259 272 282 297 3 358 356 9 2 355 3 5 6 8 10 10 3 9 10 1 354 350 339 346 355 353 282 254 218 206 193 203 210 212 218 217 217 222 217 216 213 212 213 200 198 188 182 176 188 174 186 197 195 194 188 186 182 185 190 190 192 186 179 186 179 176 183 185 189 193 193 193 186 190
129 161 158 104 266 234 256 254 256 303 292 268 158 175 251 274 292 217 240 255 262 249 214 236 251 265 291 351 316 355 357 356 14 16 17 10 5 4 11 18 11 4 6 1 355 357 351 351 356 316 289 250 216 211 215 216 221 222 219 221 220 214 225 222 221 220 210 205 196 200 194 192 190 197 187 200 186 183 190 197 191 191 193 187 188 188 183 183 181 186 184 188 194 196 183 196 199
195 147 160 188 172 162 244 188 247 250 245 342 273 111 229 72 244 269 233 282 334 288 325 275 249 286 316 273 294 344 19 26 21 26 18 13 9 10 15 12 13 15 6 5 4 360 357 353 350 334 306 300 251 232 224 229 230 226 225 225 221 218 225 225 227 221 209 202 202 208 207 206 209 204 205 200 189 193 196 189 192 192 192 191 188 187 191 184 187 185 191 195 193 189 191 188 199
204 162 74 72 234 141 245 220 241 268 268 300 249 210 203 230 346 288 229 277 282 334 301 332 6 20 359 350 7 17 17 30 32 32 24 18 15 19 21 19 13 8 11 13 10 5 0 354 344 331 310 304 293 267 248 240 241 237 235 230 228 221 219 222 228 214 206 190 201 206 212 212 218 209 213 200 203 194 197 199 198 201 196 193 192 193 187 186 183 186 188 189 196 171 189 190 196
204 104 194 216 157 176 269 311 248 185 39 248 188 279 266 283 287 284 324 251 306 351 350 29 45 31 38 15 8 6 20 34 34 28 23 22 19 22 23 20 14 13 14 14 13 8 4 357 353 343 333 326 304 291 270 259 254 244 242 240 236 230 228 225 224 220 212 202 201 207 207 207 207 208 206 202 200 203 203 206 205 204 201 200 197 197 195 192 187 194 192 188 195 179 185 192 183
105 176 236 33 143 100 184 248 346 225 243 251 198 252 274 300 285 33 20 71 327 357 36 50 57 35 30 11 14 15 24 34 33 24 20 21 24 22 21 18 16 14 12 14 14 11 11 10 4 357 350 341 325 309 293 273 261 254 252 249 243 236 233 232 227 222 207 204 208 210 212 207 204 198 189 187 192 192 202 205 208 209 209 203 205 200 198 195 190 203 202 202 197 169 189 186 193
179 194 282 159 245 267 278 83 255 247 246 260 212 237 251 241 265 284 284 300 329 357 3 41 30 34 41 33 30 28 23 23 23 16 8 11 16 18 19 20 15 14 15 16 13 13 14 14 10 10 3 350 324 311 297 291 272 264 259 252 243 241 236 237 231 220 209 211 212 210 209 213 205 196 191 182 181 187 188 194 200 205 202 206 202 203 195 196 193 202 200 203 187 185 191 193 189
63 2 322 260 89 227 216 192 215 291 269 273 257 205 243 197 244 251 280 4 357 10 11 45 48 41 49 48 41 34 35 30 15 12 9 3 10 19 21 19 15 14 14 13 15 14 15 11 11 9 4 5 360 350 331 302 293 280 271 266 255 240 236 230 226 222 223 222 220 215 213 210 209 194 197 191 196 194 192 191 191 192 194 194 196 195 191 193 190 202 192 196 189 184 196 198 191
161 184 256 301 222 222 127 309 194 233 259 250 274 258 229 228 217 283 63 65 47 38 20 35 47 37 36 45 49 40 30 27 29 15 11 15 15 17 17 16 13 10 13 15 16 16 12 10 9 6 6 3 4 357 350 334 311 291 280 268 261 250 241 229 227 225 230 230 228 222 221 218 195 203 191 196 197 194 195 199 196 203 198 190 187 187 187 188 194 197 197 195 181 189 195 201 183
176 181 210 209 217 254 247 251 186 229 231 249 246 257 231 256 273 96 100 56 58 28 48 50 26 24 17 16 19 25 22 19 17 18 20 18 14 12 13 14 14 14 15 15 12 12 13 11 6 3 2 6 0 359 356 345 335 314 294 277 269 261 250 240 234 233 232 233 232 227 222 210 213 210 196 202 201 198 197 195 198 200 199 199 200 199 186 187 193 194 198 187 192 187 196 195 188